Weather History for KMHR - December, 2013

Change the Weather History Date:

Thursday, December 26, 2013

  Actual Average Record
Temperature  
Mean Temperature 48 °F -  
Max Temperature 64 °F 50 °F 64 °F (2013)
Min Temperature 32 °F 37 °F 23 °F (2011)
Degree Days  
Heating Degree Days 17    
Moisture  
Dew Point 33 °F    
Average Humidity 63    
Maximum Humidity 93    
Minimum Humidity 30    
Precipitation  
Precipitation 0.00 in - - ()
Sea Level Pressure  
Sea Level Pressure 30.24 in    
Wind  
Wind Speed 0 mph (West)    
Max Wind Speed 6 mph    
Max Gust Speed -    
Visibility 10 miles    
Events      
Averages and records for this station are not official NWS values.
T = Trace of Precipitation, MM = Missing Value Source: NWS Daily Summary

Daily Weather History Graph

Daily Weather History Graph

Search for Another Location

Airport or City:

Trip Planner

Search our weather history database for the weather conditions in past years. The results will help you decide how hot, cold, wet, or windy it might be!

Date:

Astronomy

Dec. 26, 2013 Rise Set
Actual Time 7:21 AM PST 4:50 PM PST
Civil Twilight 6:51 AM PST 5:20 PM PST
Nautical Twilight 6:18 AM PST 5:53 PM PST
Astronomical Twilight 5:46 AM PST 6:26 PM PST
Moon 12:58 AM PST (12/26) 12:26 PM PST (12/26)
Length of Visible Light 10h 28m
Length of Day
9h 29m
Last Quarter, 37% of the Moon is Illuminated
Dec 26
Last Quarter
Jan 1
New
Jan 7
First Quarter
Jan 15
Full
Jan 23
Last Quarter

Hourly Weather History & Observations

Time (PST) Temp. Dew Point Humidity Pressure Visibility Wind Dir Wind Speed Gust Speed Precip Events Conditions
2:50 AM 35.6 °F 32.0 °F 87% 30.27 in 8.0 mi Calm Calm - N/A   Clear
3:55 AM - - N/A% 30.26 in 8.0 mi Calm Calm - N/A   Clear
4:50 AM 33.8 °F 32.0 °F 93% 30.27 in 10.0 mi Calm Calm - N/A   Clear
5:50 AM - - N/A% 30.27 in 10.0 mi Calm Calm - N/A   Clear
6:46 AM 32.0 °F 28.4 °F 87% 30.26 in 10.0 mi Calm Calm - N/A   Clear
7:46 AM 32.0 °F 28.4 °F 87% 30.27 in 10.0 mi Calm Calm - N/A   Clear
8:46 AM 39.2 °F 35.6 °F 87% 30.28 in 10.0 mi Calm Calm - N/A   Clear
9:50 AM 46.4 °F 37.4 °F 71% 30.30 in 10.0 mi Calm Calm - N/A   Clear
10:54 AM 53.6 °F 37.4 °F 54% 30.29 in 10.0 mi Calm Calm - N/A   Clear
11:45 AM 57.2 °F 33.8 °F 41% 30.26 in 10.0 mi Calm Calm - N/A   Clear
12:52 PM 60.8 °F 32.0 °F 34% 30.23 in 10.0 mi Calm Calm - N/A   Clear
1:46 PM 64.4 °F 32.0 °F 30% 30.22 in 10.0 mi Calm Calm - N/A   Clear
2:45 PM 64.4 °F 33.8 °F 32% 30.20 in 10.0 mi Calm Calm - N/A   Clear
3:45 PM 64.4 °F 33.8 °F 32% 30.20 in 10.0 mi Calm Calm - N/A   Clear
4:45 PM 57.2 °F 33.8 °F 41% 30.20 in 10.0 mi West 5.8 mph - N/A   Clear
5:45 PM 53.6 °F 35.6 °F 51% 30.20 in 10.0 mi Calm Calm - N/A   Clear
6:45 PM 44.6 °F 32.0 °F 61% 30.21 in 10.0 mi Calm Calm - N/A   Clear
7:45 PM 41.0 °F 32.0 °F 70% 30.23 in 10.0 mi Calm Calm - N/A   Clear
8:50 PM 39.2 °F 32.0 °F 75% 30.23 in 10.0 mi Calm Calm - N/A   Clear
9:45 PM 39.2 °F 32.0 °F 75% 30.23 in 10.0 mi Calm Calm - N/A   Clear
10:45 PM 37.4 °F 32.0 °F 81% 30.24 in 10.0 mi Calm Calm - N/A   Clear